DL8NDG-13 Weather Reports


Display with metric or nautical units.
time (UTC)temp
F
wind
direction
speed
MPH
gust
MPH
rain 1hr
in
rain 24hr
in
rain mn
in
humidity
%
barometer
mb
20260831230019 61 360 0.0 4.0 0.00 0.42 0.00 83 1018.0
20260831224518 61 360 0.0 4.0 0.00 0.42 0.00 82 1018.1
20260831223017 61 360 3.0 6.0 0.00 0.42 0.00 82 1018.0
20260831221514 61 360 3.0 6.0 0.00 0.42 0.00 82 1017.9
20260831220016 62 169 3.0 12.0 0.00 0.42 0.00 81 1017.9
20260831214517 62 360 5.0 12.0 0.00 0.42 0.42 81 1017.8
20260831213019 62 360 2.0 9.0 0.00 0.42 0.42 79 1017.7
20260831211509 63 360 4.0 9.0 0.00 0.42 0.42 79 1017.6
20260831210007 63 360 4.0 11.0 0.00 0.42 0.42 78 1017.3
20260831204608 63 360 4.0 11.0 0.00 0.42 0.42 78 1017.2
20260831203005 62 360 5.0 10.0 0.00 0.42 0.42 79 1017.0
20260831201507 62 205 4.0 8.0 0.00 0.42 0.42 80 1017.1
20260831200005 62 196 1.0 8.0 0.00 0.42 0.42 80 1016.9
20260831194501 63 360 3.0 11.0 0.00 0.42 0.42 79 1016.6
20260831193059 63 360 2.0 8.0 0.00 0.42 0.42 79 1016.4
20260831191559 63 184 3.0 9.0 0.00 0.42 0.42 78 1016.4
20260831190113 63 179 2.0 8.0 0.00 0.42 0.42 78 1016.3
20260831184621 63 360 1.0 11.0 0.00 0.42 0.42 77 1016.3
20260831183102 63 175 3.0 10.0 0.00 0.42 0.42 77 1016.0
20260831181552 64 360 2.0 9.0 0.01 0.42 0.42 76 1015.9
20260831180049 64 360 5.0 12.0 0.01 0.42 0.42 73 1015.5
20260831174553 65 360 7.0 11.0 0.01 0.42 0.42 69 1015.5
20260831173058 68 360 9.0 19.0 0.01 0.42 0.42 65 1015.4
20260831171545 71 200 9.0 20.0 0.00 0.41 0.41 56 1015.0
20260831170052 71 184 4.0 12.0 0.00 0.41 0.41 56 1014.8
20260831164544 71 360 7.0 18.0 0.00 0.41 0.41 55 1014.7
20260831163050 72 213 11.0 19.0 0.00 0.41 0.41 53 1014.8
20260831161542 72 194 10.0 22.0 0.00 0.41 0.41 52 1014.5
20260831160047 74 360 9.0 19.0 0.00 0.41 0.41 52 1014.4
20260831154544 75 169 7.0 20.0 0.00 0.41 0.41 52 1014.4
20260831153043 74 173 9.0 16.0 0.00 0.41 0.41 51 1014.1
20260831151549 75 218 10.0 20.0 0.00 0.41 0.41 50 1014.2
20260831150045 74 171 9.0 21.0 0.00 0.41 0.41 52 1014.0
20260831144551 75 182 6.0 15.0 0.00 0.41 0.41 53 1014.3
20260831143043 75 175 7.0 14.0 0.00 0.41 0.41 53 1014.3
20260831141536 76 156 11.0 20.0 0.00 0.41 0.41 51 1014.3
20260831140035 76 178 6.0 20.0 0.00 0.41 0.41 52 1014.1
20260831134533 76 360 10.0 23.0 0.00 0.41 0.41 52 1014.2
20260831133032 75 188 11.0 20.0 0.00 0.41 0.41 53 1014.2
20260831131530 75 171 14.0 22.0 0.00 0.41 0.41 52 1014.3
20260831130029 75 181 7.0 22.0 0.00 0.41 0.41 53 1014.4
20260831124528 75 182 13.0 21.0 0.00 0.41 0.41 54 1014.4
20260831123025 74 174 5.0 12.0 0.00 0.41 0.41 57 1014.5
20260831121533 74 194 9.0 18.0 0.00 0.41 0.41 57 1014.5
20260831120025 73 176 7.0 13.0 0.00 0.41 0.41 60 1014.5
20260831114529 72 360 6.0 17.0 0.00 0.41 0.41 61 1014.6
20260831113021 74 175 9.0 15.0 0.00 0.41 0.41 57 1014.6
20260831111518 73 177 8.0 21.0 0.00 0.41 0.41 60 1014.6
20260831110015 72 360 9.0 16.0 0.00 0.41 0.41 61 1014.8
20260831104512 71 179 7.0 15.0 0.00 0.41 0.41 62 1014.7
20260831103008 71 360 6.0 20.0 0.00 0.41 0.41 64 1014.6
20260831101507 70 171 7.0 20.0 0.00 0.41 0.41 67 1014.8
20260831100010 70 192 6.0 15.0 0.00 0.41 0.41 69 1014.9
20260831094501 69 360 6.0 12.0 0.00 0.41 0.41 73 1014.9
20260831093100 68 171 8.0 17.0 0.00 0.41 0.41 72 1015.0
20260831091555 67 360 4.0 16.0 0.00 0.41 0.41 77 1014.9
20260831090053 67 185 5.0 16.0 0.00 0.41 0.41 75 1014.9
20260831084602 67 186 6.0 16.0 0.00 0.41 0.41 76 1014.8
20260831083050 67 360 7.0 15.0 0.00 0.41 0.41 76 1014.7
20260831081609 67 171 6.0 15.0 0.00 0.41 0.41 81 1014.5
20260831080043 66 190 7.0 11.0 0.00 0.41 0.41 83 1014.7
20260831074545 65 184 7.0 14.0 0.00 0.41 0.41 84 1014.7
20260831073101 64 360 4.0 14.0 0.00 0.41 0.41 83 1014.6
20260831071533 63 360 4.0 9.0 0.00 0.41 0.41 79 1014.5
20260831070034 63 175 5.0 10.0 0.00 0.41 0.41 76 1014.3
20260831064537 62 360 7.0 10.0 0.00 0.41 0.41 74 1014.2
20260831063027 62 360 5.0 10.0 0.00 0.41 0.41 75 1014.1
20260831061532 62 166 4.0 10.0 0.00 0.41 0.41 73 1013.9
20260831060021 62 360 6.0 12.0 0.00 0.41 0.41 72 1013.5
20260831054518 62 182 5.0 9.0 0.00 0.41 0.41 71 1013.5
20260831053021 62 360 0.0 0.0 0.00 0.41 0.41 71 1013.4
20260831051515 62 198 0.0 0.0 0.00 0.41 0.41 71 1013.2
20260831050032 62 191 0.0 0.0 0.00 0.41 0.41 72 1013.0
20260831044510 62 191 0.0 0.0 0.00 0.41 0.41 73 1012.8
20260831043010 62 176 0.0 0.0 0.00 0.41 0.41 74 1012.5
20260831041507 61 174 0.0 0.0 0.01 0.41 0.41 75 1012.3
20260831040020 61 202 0.0 0.0 0.01 0.41 0.41 75 1012.5
20260831034507 61 173 0.0 0.0 0.05 0.41 0.41 76 1012.3
20260831033005 61 191 0.0 0.0 0.10 0.41 0.41 77 1012.4
20260831031503 61 177 0.0 0.0 0.40 0.40 0.40 78 1012.3
20260831030010 61 163 3.0 10.0 0.40 0.40 0.40 79 1012.3
20260831024501 61 168 3.0 8.0 0.36 0.36 0.36 81 1012.5
20260831023100 61 158 8.0 15.0 0.31 0.31 0.31 81 1012.5
20260831021600 61 188 0.0 0.0 0.00 0.00 0.00 82 1010.9
20260831020057 61 188 0.0 0.0 0.00 0.00 0.00 82 1010.9
20260831014556 60 205 0.0 0.0 0.00 0.00 0.00 82 1011.3
20260831013154 60 189 0.0 0.0 0.00 0.00 0.00 82 1011.4
20260831011551 60 205 0.0 0.0 0.00 0.00 0.00 83 1011.5
20260831010048 59 207 0.0 0.0 0.00 0.00 0.00 83 1011.7
20260831004547 59 191 0.0 0.0 0.00 0.00 0.00 84 1012.0
20260831003043 60 190 0.0 0.0 0.00 0.00 0.00 84 1012.0
20260831001541 60 190 0.0 0.0 0.00 0.00 0.00 84 1012.3
20260831000053 60 190 0.0 0.0 0.00 0.00 0.00 84 1012.5
20260830234546 60 190 0.0 0.0 0.00 0.00 0.00 84 1012.5
20260830233053 60 190 0.0 0.0 0.00 0.00 0.00 84 1012.7
20260830231534 60 188 0.0 0.0 0.00 0.00 0.00 84 1012.9